Aérodrome :
LOGIN :

S'inscrire | Disclaimer

   EN    FR    IT 

 










Légende :    VFR   VFR Marginal   IFR   IFR Intensif   IFR Très Intensif
Visi : 
Plafond : 
>= 8 km
>= 3000ft
5 à 8 km
1000 à 3000 ft
1500m à 5 km
500 à 1000 ft
800 à 1500m
200 à 500 ft
< 800m
< 200 ft
Symboles :   Orages  Brouillard  Fortes neiges  Fortes précipitations  Vent > 20 kt
SIGMETs :   Divers  Orages  Givrage  Turbulence  Onde Orograph.  Cendres Volcan.







- Altitude de l'aérodrome : 407 ft


EGDM - MoD Boscombe Down Amesbury

DERNIER METAR :
  • 200550Z 21017KT 9999 BKN011 BKN018 OVC050 16/15 Q1011 GRN

METARs EXPIRÉS :
  • 200450Z AUTO 21015KT 9999 FEW010/// BKN018/// BKN050/// 16/15 Q1012
  • 200350Z AUTO 20013KT 9999 BKN009/// BKN021/// 16/15 Q1012 RERA

Prévision TAF périmée.
Pas de NOTAMs connus pour ce terrain.
1 SIGMET publié pour la FIR London (EGTT) :
 
Onde orographique forte
EGTT SIGMET 03 VALID 200500/200900 EGRR
EGTT LONDON FIR SEV MTW FCST WI N5407 E00000 - N5409 W00252 - N5500 W00500 - N5500 W00100 - N5500 E00001 - N5407 E00000 FL030/250 MOV N 10KT WKN=



MET'MAP, la Météo Aéronautique d'un coup d'oeil ! - Copyright ORBIFLY Décembre 2007 - Disclaimer

ORBIFLY MET'MAP TEAM :

Programmation & Développement : Alexandra Zaïnal
Conception & Développement : Baudouin d'Aumeries
Co-Programmation & Développement : Marc-Olivier Méhu
Soutien technique & logistique : Manuel Goepfert

Contact : metmap@orbifly.com




SOURCES & CREDITS :

   NOAA